Home   Weather   Hamburg   Past weeks

Flag for Germany Past Weather in Hamburg, Hamburg, Germany — Yesterday and Last 2 Weeks

Now
41 °F

Broken clouds.


Feels Like: 35 °F
Forecast: 31 / 49 °F
Wind: 9 mph from West

Location: Hamburg-Fuhlsbuettel

Current Time: Apr 25, 2017 at 10:48:09 am

Latest Report: Apr 25, 2017 at 9:50 am


Visibility: N/A

Pressure: 29.56 "Hg

Humidity: 87%

Dew Point: 37 °F

Location of HamburgLocation

Past Weather in Hamburg — Graph

°F

Hamburg Temperature Yesterday

Maximum temperature yesterday: 52 °F (at 1:50 pm)
Minimum temperature yesterday: 37 °F (at 12:50 am)
Average temperature yesterday: 44 °F

High & Low Weather Summary for the Past Weeks

 TemperatureHumidityPressure
High55 °F (Apr 21, 12:50 pm)100% (Apr 14, 6:50 am)30.63 "Hg (Apr 14, 6:50 am)
Low25 °F (Apr 19, 5:50 am)40% (Apr 20, 2:50 pm)29.56 "Hg (Apr 25, 7:20 am)
Average43 °F79%30.07 "Hg
* Reported Apr 10 9:20 am — Apr 25 9:20 am, Hamburg, Weather by CustomWeather, © 2017

Note: Actual official high and low records may vary slightly from our data, if they occured in-between our weather recording intervals... More about our weather records

Advertising

Hamburg Weather History for the Previous 24 Hours

Scroll right to see more
 ConditionsComfort  
Time TempWeatherWind HumidityBarometerVisibility
9:20 am
Tue, Apr 25
39 °FScattered clouds.5 mph93%29.56 "HgN/A
8:50 am39 °FLight rain. Partly sunny.7 mph93%29.56 "HgN/A
8:20 am37 °FRain. Low clouds.9 mph100%29.56 "Hg5 mi
7:50 am39 °FLight rain. Partly sunny.9 mph93%29.56 "HgN/A
7:20 am37 °FPartly sunny.8 mph100%29.56 "HgN/A
6:50 am37 °FPartly sunny.7 mph93%29.59 "HgN/A
6:20 am37 °FPartly sunny.6 mph93%29.59 "HgN/A
5:50 am37 °FPassing clouds.2 mph93%29.59 "HgN/A
4:20 am37 °FMostly cloudy.6 mph93%29.62 "HgN/A
3:50 am37 °FLight rain. Mostly cloudy.5 mph93%29.62 "HgN/A
3:20 am37 °FLight rain. Partly cloudy.3 mph93%29.62 "HgN/A
2:50 am37 °FLight rain. Partly cloudy.2 mph93%29.65 "HgN/A
2:20 am37 °FLight rain. Partly cloudy.2 mph93%29.65 "HgN/A
1:50 am37 °FLight rain. Partly cloudy.6 mph87%29.65 "HgN/A
1:20 am39 °FLight rain. Partly cloudy.2 mph87%29.68 "HgN/A
12:50 am39 °FLight rain. Partly cloudy.3 mph87%29.68 "HgN/A
12:20 am39 °FLight rain. Mostly cloudy.7 mph87%29.71 "HgN/A
11:50 pm
Mon, Apr 24
41 °FLight rain. Mostly cloudy.3 mph81%29.71 "HgN/A
11:20 pm41 °FLight rain. Mostly cloudy.2 mph93%29.71 "HgN/A
10:50 pm41 °FPassing clouds.2 mph100%29.71 "HgN/A
9:50 pm41 °FPartly cloudy.5 mph93%29.74 "HgN/A
9:20 pm43 °FLight rain. Partly cloudy.5 mph87%29.74 "HgN/A
8:50 pm43 °FLight rain. Partly cloudy.6 mph87%29.74 "HgN/A
8:20 pm43 °FLight rain. More clouds than sun.8 mph87%29.74 "HgN/A
7:50 pm43 °FLight rain. Broken clouds.10 mph87%29.74 "HgN/A
7:20 pm45 °FSprinkles. Broken clouds.8 mph87%29.74 "HgN/A
6:50 pm46 °FSprinkles. Partly sunny.14 mph87%29.74 "HgN/A
6:20 pm46 °FPartly sunny.10 mph87%29.77 "HgN/A
5:50 pm45 °FSprinkles. Partly sunny.13 mph93%29.77 "HgN/A
5:20 pm48 °FSprinkles. Partly sunny.14 mph87%29.74 "HgN/A
4:50 pm50 °FSprinkles. Partly sunny.13 mph82%29.77 "HgN/A
4:20 pm50 °FBroken clouds.12 mph88%29.77 "HgN/A
3:50 pm52 °FSprinkles. Partly sunny.17 mph72%29.77 "HgN/A
3:20 pm52 °FPartly sunny.16 mph67%29.77 "HgN/A
2:50 pm52 °FPartly sunny.20 mph67%29.77 "HgN/A
2:20 pm52 °FPartly sunny.15 mph67%29.80 "HgN/A
1:50 pm52 °FPartly sunny.17 mph67%29.80 "HgN/A
1:20 pm50 °FSprinkles. Partly sunny.23 mph71%29.80 "HgN/A
12:50 pm50 °FBroken clouds.20 mph67%29.83 "HgN/A
12:20 pm50 °FPartly sunny.17 mph67%29.83 "HgN/A
11:50 am50 °FBroken clouds.22 mph62%29.83 "HgN/A
11:20 am48 °FBroken clouds.17 mph66%29.86 "HgN/A
10:50 am46 °FBroken clouds.22 mph71%29.86 "HgN/A
10:20 am46 °FBroken clouds.18 mph66%29.86 "HgN/A
Weather by CustomWeather, © 2017

See weather overviewHow to use our weather pages